Weather History for Carmi, IL

Change the Weather History Date:

Monday, July 22, 2013

  Actual Average (KEVV) Record (KEVV)
Temperature  
Mean Temperature 80 °F 78 °F  
Max Temperature 89 °F 88 °F 107 °F (1901)
Min Temperature 72 °F 67 °F 50 °F (1966)
Degree Days  
Heating Degree Days 0 0  
Month to date heating degree days 0  
Since 1 June heating degree days 6  
Since 1 July heating degree days 0  
Cooling Degree Days 15 13  
Month to date cooling degree days 286  
Year to date cooling degree days 719  
Since 1 June cooling degree days 584  
Growing Degree Days 30 (Base 50)    
Moisture  
Dew Point 71 °F    
Average Humidity 78    
Maximum Humidity 95    
Minimum Humidity 52    
Precipitation  
Precipitation 0.13 in 0.13 in 1.46 in (1997)
Month to date precipitation 2.87  
Year to date precipitation 26.89  
Snow  
Snow 0.00 in 0.00 in - ()
Month to date snowfall 0.0  
Since 1 June snowfall 0.0  
Since 1 July snowfall 0.0  
Snow Depth -    
Sea Level Pressure  
Sea Level Pressure 29.84 in    
Wind  
Wind Speed 5 mph (SW)    
Max Wind Speed 12 mph    
Max Gust Speed 16 mph    
Visibility 8 miles    
Events Rain    
T = Trace of Precipitation, MM = Missing Value Source: NWS Daily Summary

Daily Weather History Graph

Daily Weather History Graph

Search for Another Location

Airport:

Trip Planner

Search our weather history database for the weather conditions in past years. The results will help you decide how hot, cold, wet, or windy it might be!

Date:

Astronomy

Jul. 22, 2013 Rise Set
Actual Time 5:47 AM CDT 8:10 PM CDT
Civil Twilight 5:17 AM CDT 8:40 PM CDT
Nautical Twilight 4:40 AM CDT 9:17 PM CDT
Astronomical Twilight 3:59 AM CDT 9:57 PM CDT
Moon 7:57 PM CDT (7/22) 5:42 AM CDT (7/22)
Length of Visible Light 15h 23m
Length of Day
14h 23m
Full, 100% of the Moon is Illuminated
Jul 22
Full
Jul 22
Full
Jul 29
Last Quarter
Aug 6
New
Aug 14
First Quarter

Hourly Weather History & Observations

Time (CDT) Temp. Heat Index Dew Point Humidity Pressure Visibility Wind Dir Wind Speed Gust Speed Precip Events Conditions
12:15 AM 73.0 °F - 71.2 °F 94% 29.87 in 5.0 mi South 3.5 mph - N/A   Mostly Cloudy
12:35 AM 73.2 °F - 71.6 °F 95% 29.87 in 5.0 mi South 4.6 mph - N/A   Overcast
12:55 AM 73.4 °F - 71.6 °F 94% 29.87 in 4.0 mi South 4.6 mph - N/A   Overcast
1:15 AM 73.4 °F - 71.6 °F 94% 29.86 in 4.0 mi SSE 3.5 mph - N/A   Scattered Clouds
1:35 AM 73.4 °F - 71.6 °F 94% 29.86 in 3.0 mi SSE 3.5 mph - N/A   Clear
1:55 AM 73.4 °F - 71.6 °F 94% 29.85 in 3.0 mi SSE 3.5 mph - N/A   Scattered Clouds
2:15 AM 73.4 °F - 71.6 °F 94% 29.85 in 4.0 mi South 3.5 mph - N/A   Mostly Cloudy
2:35 AM 73.0 °F - 71.6 °F 95% 29.85 in 5.0 mi South 6.9 mph - N/A   Overcast
2:55 AM 73.0 °F - 71.1 °F 93% 29.85 in 7.0 mi South 5.8 mph - N/A   Overcast
3:15 AM 72.9 °F - 70.9 °F 93% 29.85 in 7.0 mi SW 3.5 mph - N/A Rain Light Rain
3:35 AM 72.7 °F - 70.7 °F 93% 29.84 in 3.0 mi Calm Calm - 0.04 in Rain Heavy Rain
3:55 AM 72.7 °F - 70.7 °F 93% 29.83 in 5.0 mi SSE 4.6 mph - 0.09 in   Overcast
4:15 AM 72.7 °F - 70.7 °F 93% 29.83 in 7.0 mi SSW 3.5 mph - 0.04 in   Mostly Cloudy
4:35 AM 72.7 °F - 70.7 °F 93% 29.83 in 7.0 mi Calm Calm - 0.04 in   Mostly Cloudy
4:55 AM 72.5 °F - 70.3 °F 93% 29.84 in 7.0 mi Calm Calm - 0.04 in   Overcast
5:15 AM 72.5 °F - 70.3 °F 93% 29.84 in 5.0 mi Calm Calm - N/A   Overcast
5:35 AM 72.3 °F - 70.2 °F 93% 29.84 in 7.0 mi WSW 4.6 mph - N/A   Mostly Cloudy
5:55 AM 72.5 °F - 70.3 °F 93% 29.84 in 7.0 mi WSW 4.6 mph - N/A   Overcast
6:15 AM 72.7 °F - 70.7 °F 93% 29.84 in 7.0 mi Calm Calm - N/A   Overcast
6:35 AM 72.7 °F - 70.7 °F 93% 29.84 in 5.0 mi Calm Calm - N/A   Overcast
6:55 AM 72.9 °F - 70.7 °F 93% 29.84 in 5.0 mi SSW 3.5 mph - N/A   Overcast
7:15 AM 72.9 °F - 70.7 °F 93% 29.84 in 5.0 mi Calm Calm - N/A   Overcast
7:35 AM 73.2 °F - 71.2 °F 93% 29.84 in 4.0 mi SSW 4.6 mph - N/A   Overcast
7:55 AM 73.4 °F - 71.4 °F 93% 29.85 in 5.0 mi SSW 5.8 mph - N/A   Overcast
8:35 AM 74.3 °F - 71.8 °F 92% 29.85 in 7.0 mi SSW 5.8 mph - N/A   Mostly Cloudy
8:55 AM 75.2 °F - 72.1 °F 90% 29.85 in 7.0 mi SW 4.6 mph - N/A   Scattered Clouds
9:55 AM 78.4 °F - 72.3 °F 81% 29.85 in 10.0 mi WSW 5.8 mph - N/A   Clear
10:15 AM 79.0 °F - 72.0 °F 79% 29.86 in 10.0 mi WSW 6.9 mph - N/A   Scattered Clouds
10:35 AM 80.4 °F 84.2 °F 71.6 °F 74% 29.85 in 10.0 mi West 5.8 mph - N/A   Scattered Clouds
10:55 AM 81.5 °F 86.3 °F 72.3 °F 74% 29.86 in 10.0 mi SW 5.8 mph - N/A   Scattered Clouds
11:15 AM 81.9 °F 86.4 °F 71.6 °F 71% 29.86 in 10.0 mi WSW 5.8 mph - N/A   Mostly Cloudy
11:35 AM 83.8 °F 88.9 °F 71.4 °F 66% 29.86 in 10.0 mi West 6.9 mph - N/A   Scattered Clouds
11:55 AM 84.0 °F 88.7 °F 70.9 °F 64% 29.86 in 10.0 mi West 10.4 mph - N/A   Scattered Clouds
12:15 PM 84.6 °F 89.4 °F 70.5 °F 63% 29.86 in 7.0 mi West 5.8 mph - N/A   Scattered Clouds
12:35 PM 84.6 °F 89.4 °F 70.9 °F 63% 29.85 in 10.0 mi West 8.1 mph - N/A   Mostly Cloudy
12:55 PM 85.5 °F 89.8 °F 69.8 °F 59% 29.86 in 10.0 mi West 6.9 mph - N/A   Scattered Clouds
1:15 PM 86.0 °F 90.7 °F 70.0 °F 59% 29.85 in 10.0 mi WNW 6.9 mph - N/A   Scattered Clouds
1:35 PM 86.0 °F 89.7 °F 68.7 °F 56% 29.85 in 10.0 mi West 8.1 mph - N/A   Scattered Clouds
1:55 PM 87.6 °F 91.9 °F 69.1 °F 54% 29.85 in 10.0 mi West 10.4 mph - N/A   Scattered Clouds
2:15 PM 87.1 °F 90.9 °F 68.7 °F 54% 29.84 in 10.0 mi WNW 10.4 mph 16.1 mph N/A   Scattered Clouds
2:35 PM 86.7 °F 91.4 °F 69.6 °F 57% 29.84 in 10.0 mi West 4.6 mph - N/A   Mostly Cloudy
2:55 PM 88.5 °F 92.7 °F 68.9 °F 52% 29.84 in 10.0 mi West 8.1 mph - N/A   Mostly Cloudy
3:15 PM 88.2 °F 92.5 °F 68.9 °F 53% 29.83 in 10.0 mi West 6.9 mph - N/A   Mostly Cloudy
3:35 PM 88.3 °F 93.6 °F 70.2 °F 55% 29.83 in 10.0 mi West 8.1 mph - N/A   Mostly Cloudy
3:55 PM 88.9 °F 93.8 °F 69.8 °F 53% 29.83 in 10.0 mi West 10.4 mph - N/A   Scattered Clouds
4:15 PM 86.5 °F 91.4 °F 70.0 °F 58% 29.83 in 10.0 mi WSW 8.1 mph - N/A   Scattered Clouds
4:35 PM 86.7 °F 91.4 °F 70.0 °F 57% 29.83 in 10.0 mi WSW 9.2 mph - N/A   Mostly Cloudy
4:55 PM 86.5 °F 91.8 °F 70.5 °F 59% 29.83 in 10.0 mi WSW 11.5 mph - N/A   Scattered Clouds
5:15 PM 87.6 °F 92.3 °F 69.8 °F 55% 29.83 in 10.0 mi WSW 11.5 mph - N/A   Scattered Clouds
5:35 PM 87.6 °F 92.3 °F 69.8 °F 55% 29.83 in 10.0 mi WNW 11.5 mph - N/A   Scattered Clouds
5:55 PM 87.4 °F 92.3 °F 69.8 °F 56% 29.82 in 10.0 mi West 10.4 mph - N/A   Scattered Clouds
6:15 PM 87.4 °F 92.3 °F 70.2 °F 56% 29.82 in 10.0 mi West 10.4 mph - N/A   Clear
6:35 PM 86.9 °F 92.5 °F 71.2 °F 59% 29.81 in 7.0 mi WSW 6.9 mph - N/A   Clear
6:55 PM 86.0 °F 91.1 °F 70.9 °F 60% 29.81 in 10.0 mi WSW 6.9 mph - N/A   Clear
7:15 PM 85.1 °F 91.1 °F 72.3 °F 65% 29.81 in 10.0 mi Calm Calm - N/A   Clear
7:35 PM 84.2 °F 90.6 °F 72.9 °F 69% 29.81 in 10.0 mi Calm Calm - N/A   Clear
7:55 PM 82.8 °F 88.7 °F 73.4 °F 73% 29.82 in 10.0 mi SW 4.6 mph - N/A   Clear
8:15 PM 80.6 °F 84.9 °F 72.5 °F 76% 29.82 in 10.0 mi SW 4.6 mph - N/A   Clear
8:35 PM 79.3 °F - 72.7 °F 80% 29.83 in 10.0 mi SSW 4.6 mph - N/A   Clear
8:55 PM 79.3 °F - 72.0 °F 78% 29.83 in 10.0 mi SSW 5.8 mph - N/A   Clear
9:15 PM 77.9 °F - 72.5 °F 83% 29.84 in 10.0 mi Calm Calm - N/A   Clear
9:35 PM 76.6 °F - 72.9 °F 88% 29.85 in 7.0 mi Calm Calm - N/A   Clear
9:55 PM 76.1 °F - 72.7 °F 89% 29.86 in 7.0 mi Calm Calm - N/A   Clear
10:15 PM 75.6 °F - 72.5 °F 90% 29.86 in 7.0 mi Calm Calm - N/A   Scattered Clouds
10:35 PM 75.0 °F - 72.3 °F 91% 29.86 in 5.0 mi Calm Calm - N/A   Scattered Clouds
10:55 PM 75.7 °F - 72.9 °F 91% 29.86 in 7.0 mi South 4.6 mph - N/A   Mostly Cloudy
11:15 PM 76.1 °F - 72.5 °F 89% 29.87 in 7.0 mi South 4.6 mph - N/A   Scattered Clouds
11:35 PM 75.2 °F - 72.1 °F 90% 29.86 in 7.0 mi South 4.6 mph - N/A   Clear
11:55 PM 75.4 °F - 72.0 °F 89% 29.85 in 7.0 mi SSW 4.6 mph - N/A   Clear